Location: McFarlands Corners
(41.4117°N, 81.3382°W)
Time: 20:12:43
(UTC+00:00)

Vanguard 3 - Pass Details

Date: 18 November 2024
Orbit: 507 x 3221 km, 33.4° (Epoch: 03 December)

Event Time Altitude Azimuth Distance (km) Brightness Sun altitude
Rises 22:21:21 0° 278° (W) 6,356 12.9 -4.0°
Reaches altitude 10° 22:26:51 10° 270° (W) 4,892 12.5 -5.0°
Maximum altitude 22:36:56 28° 219° (SW) 2,705 10.6 -6.7°
Drops below altitude 10° 22:43:31 10° 163° (SSE) 3,099 10.2 -7.9°
Sets 22:46:09 0° 151° (SSE) 3,743 10.4 -8.4°
